Tracking 29892 objects as of 21-Nov-2024
HD Live streaming from Space Station
objects crossing your sky now

STARLINK-3965

Track STARLINK-3965 now!
10-day predictions
STARLINK-3965 is classified as:


NORAD ID: 52550
Int'l Code: 2022-051T
Perigee: 545.7 km
Apogee: 548.1 km
Inclination: 53.2 °
Period: 95.4 minutes
Semi major axis: 6917 km
RCS: Unknown
Launch date: May 13, 2022
Source: United States (US)
Launch site: AIR FORCE WESTERN TEST RANGE (AFWTR)
Your satellite tracking list
Your tracking list is empty




NASA's NSSDC Master Catalog

Two Line Element Set (TLE):
1 52550U 22051T   24325.78445654  .00000000  00000-0  18080-4 0  9997
2 52550  53.2152  96.5579 0001677 111.6026 248.5145 15.08836973139907
Source of the keplerian elements: AFSPC